Swansboro, NC

3:40 AM EST on December 17, 2017 (GMT -0500)
Bogue McAlf

Weather History for KNJM - May, 2013

Change the Weather History Date:

Friday, May 3, 2013

  Actual Average (KNKT) Record (KNKT)
Temperature  
Mean Temperature 64 °F -  
Max Temperature 71 °F 74 °F 91 °F (2012)
Min Temperature 55 °F 54 °F 46 °F (2015)
Degree Days  
Heating Degree Days 2    
Growing Degree Days 14 (Base 50)    
Moisture  
Dew Point 50 °F    
Average Humidity 71    
Maximum Humidity 90    
Minimum Humidity 45    
Precipitation  
Precipitation 0.00 in - - ()
Sea Level Pressure  
Sea Level Pressure 30.18 in    
Wind  
Wind Speed 12 mph (NE)    
Max Wind Speed 23 mph    
Max Gust Speed 32 mph    
Visibility 10 miles    
Events      
Averages and records for this station are not official NWS values.
T = Trace of Precipitation, MM = Missing Value Source: NWS Daily Summary

Daily Weather History Graph

Daily Weather History Graph

Search for Another Location

Airport or City:

Trip Planner

Search our weather history database for the weather conditions in past years. The results will help you decide how hot, cold, wet, or windy it might be!

Date:

Astronomy

May. 03, 2013 Rise Set
Actual Time 6:15 AM EDT 7:54 PM EDT
Civil Twilight 5:48 AM EDT 8:22 PM EDT
Nautical Twilight 5:15 AM EDT 8:54 PM EDT
Astronomical Twilight 4:41 AM EDT 9:29 PM EDT
Moon 2:23 AM EDT (5/3) 2:01 PM EDT (5/3)
Length of Visible Light 14h 33m
Length of Day
13h 39m
Last Quarter, 37% of the Moon is Illuminated
May 3
Last Quarter
May 9
New
May 18
First Quarter
May 25
Full
May 31
Last Quarter

Hourly Weather History & Observations

Time (EDT) Temp. Dew Point Humidity Pressure Visibility Wind Dir Wind Speed Gust Speed Precip Events Conditions
12:57 AM 59.0 °F 54.0 °F 83% 30.22 in 10.0 mi NNE 8.1 mph - N/A   Overcast
1:57 AM 57.9 °F 54.0 °F 87% 30.19 in 10.0 mi NNE 9.2 mph - N/A   Overcast
2:21 AM 57.2 °F 53.6 °F 88% 30.16 in 10.0 mi NNE 9.2 mph - N/A   Overcast
2:31 AM 57.2 °F 53.6 °F 88% 30.16 in 10.0 mi NNE 10.4 mph - N/A   Overcast
2:57 AM 57.9 °F 54.0 °F 87% 30.17 in 10.0 mi NNE 11.5 mph - N/A   Overcast
3:57 AM 57.9 °F 54.0 °F 87% 30.16 in 10.0 mi NE 12.7 mph - N/A   Overcast
4:44 AM 57.2 °F 53.6 °F 88% 30.14 in 10.0 mi NE 11.5 mph - N/A   Scattered Clouds
4:57 AM 57.9 °F 55.0 °F 90% 30.16 in 10.0 mi NE 11.5 mph - N/A   Partly Cloudy
5:57 AM 57.9 °F 55.0 °F 90% 30.16 in 10.0 mi NNE 10.4 mph - N/A   Partly Cloudy
6:57 AM 57.0 °F 54.0 °F 89% 30.18 in 10.0 mi NNE 8.1 mph - N/A   Clear
7:57 AM 59.0 °F 55.0 °F 87% 30.19 in 10.0 mi NE 11.5 mph - N/A   Scattered Clouds
8:57 AM 63.0 °F 55.0 °F 75% 30.19 in 10.0 mi NNE 12.7 mph 23.0 mph N/A   Partly Cloudy
9:57 AM 66.0 °F 54.0 °F 65% 30.20 in 10.0 mi ENE 16.1 mph 26.5 mph N/A   Mostly Cloudy
10:57 AM 68.0 °F 51.1 °F 55% 30.21 in 10.0 mi ENE 18.4 mph 27.6 mph N/A   Overcast
11:57 AM 70.0 °F 51.1 °F 51% 30.22 in 10.0 mi ENE 21.9 mph 28.8 mph N/A   Overcast
12:57 PM 69.1 °F 51.1 °F 53% 30.21 in 10.0 mi ENE 23.0 mph 32.2 mph N/A   Mostly Cloudy
1:57 PM 69.1 °F 48.9 °F 49% 30.19 in 10.0 mi ENE 18.4 mph 31.1 mph N/A   Clear
2:57 PM 66.0 °F 48.0 °F 52% 30.19 in 10.0 mi ENE 13.8 mph 27.6 mph N/A   Clear
3:57 PM 64.9 °F 43.0 °F 45% 30.18 in 10.0 mi NE 16.1 mph 28.8 mph N/A   Clear
4:57 PM 62.1 °F 44.1 °F 52% 30.19 in 10.0 mi ENE 21.9 mph 28.8 mph N/A   Clear
5:57 PM 61.0 °F 44.1 °F 54% 30.19 in 10.0 mi ENE 16.1 mph 29.9 mph N/A   Scattered Clouds
6:57 PM 59.0 °F 43.0 °F 55% 30.19 in 10.0 mi NE 10.4 mph 19.6 mph N/A   Clear
7:57 PM 57.9 °F 46.0 °F 65% 30.19 in 10.0 mi NE 11.5 mph 20.7 mph N/A   Clear
8:57 PM 57.9 °F 46.0 °F 65% 30.19 in 10.0 mi NE 16.1 mph 21.9 mph N/A   Overcast
9:57 PM 57.9 °F 46.9 °F 67% 30.19 in 10.0 mi NE 13.8 mph 23.0 mph N/A   Overcast
10:57 PM 57.0 °F 46.9 °F 69% 30.18 in 10.0 mi NE 11.5 mph 19.6 mph N/A   Mostly Cloudy
11:57 PM 55.9 °F 48.0 °F 75% 30.16 in 10.0 mi NNE 11.5 mph - N/A   Mostly Cloudy